Regional Weather Roundup
Issued by NWS

Home | Current Version | Previous Version | Graphics & Text | Print | Product List | Glossary On
Versions: 1 2 3 4 5 6 7 8 9 10 11 12 13 14 15 16 17 18 19 20 21 22 23 24 25 26 27 28 29 30 31 32 33 34 35 36 37 38 39 40 41 42 43 44 45 46 47 48 49 50
000
ASUS43 KLSX 300507
RWRMO

WEATHER SUMMARY FOR MISSOURI
NATIONAL WEATHER SERVICE SPRINGFIELD MO
1200 AM CDT SUN AUG 30 2015

NOTE: "FAIR" INDICATES FEW OR NO CLOUDS BELOW 12,000 FEET WITH NO
       SIGNIFICANT WEATHER AND/OR OBSTRUCTIONS TO VISIBILITY.
       CURRENT SKY AND/OR WEATHER CONDITIONS ARE NOT AVAILABLE FOR
       CHILLICOTHE AND FARMINGTON.

MOZ001>031-035>038-043-044-053-054-300600-
...NORTHERN AND WESTERN MISSOURI...

CITY           SKY/WX    TMP DP  RH WIND       PRES   REMARKS
KANSAS CTY INT MOCLDY    65  64  97 NW6       30.05S
KANSAS C DTWN  CLOUDY    71  66  84 N3        30.03F
LEE`S SUMMIT   CLOUDY    70  66  87 N6        30.04F
ST JOSEPH      MOCLDY    61  60  97 NW3       30.06R
CHILLICOTHE      N/A     70  67  90 NE5       30.04F
KIRKSVILLE     FOG       65  63  93 CALM      30.04F VSB 1/4

$$
MOZ066>068-077>081-088>096-101>105-300600-
...SOUTHWEST MISSOURI...

CITY           SKY/WX    TMP DP  RH WIND       PRES   REMARKS
SPRINGFIELD    PTCLDY    69  66  90 SE6       30.02F
JOPLIN         CLOUDY    72  70  93 CALM      30.01S FOG

$$
MOZ032>034-039>042-045>050-055>058-069>072-300600-
...CENTRAL MISSOURI...

CITY           SKY/WX    TMP DP  RH WIND       PRES   REMARKS
COLUMBIA       MOCLDY    72  69  90 N3        30.03S
JEFFERSON CITY MOCLDY    71  69  93 CALM      30.01S
ROLLA          CLEAR     68  65  90 SW8       30.03S
SEDALIA        CLEAR     70  68  93 S5        30.03S FOG
WHITEMAN AFB   CLEAR     71  71  99 CALM      30.01S
WARRENSBURG    PTCLDY    70  68  94 NW3       30.02S
OSAGE BEACH    MOCLDY    72  68  88 S7        30.03S

$$
MOZ051-052-059>065-300600-
...EAST CENTRAL MISSOURI...

CITY           SKY/WX    TMP DP  RH WIND       PRES   REMARKS
ST LOUIS INTL  MOCLDY    75  70  83 S5        30.01F
SPIRIT OF STL  MOCLDY    73  71  93 CALM      30.01S
ST CHARLES     CLEAR     70  69  97 E5        30.01R

$$
MOZ072>076-082>087-097>100-106>115-300600-
...SOUTH CENTRAL AND SOUTHEAST MISSOURI...

CITY           SKY/WX    TMP DP  RH WIND       PRES   REMARKS
CAPE GIRARDEAU CLOUDY    73  71  93 E5        30.04S
FARMINGTON     MOCLDY    70  70 100 SE3       30.07S
POPLAR BLUFF   CLOUDY    72  70  93 CALM      30.02S
WEST PLAINS    PTCLDY    68  64  87 S3        30.06F

$$



USA.gov is the U.S. government's official web portal to all federal, state and local government web resources and services.